Weather History for Bismarck, ND

Change the Weather History Date:

Saturday, April 6, 2013

  Actual Average Record
Temperature  
Mean Temperature 38 °F 40 °F  
Max Temperature 49 °F 52 °F 77 °F (1988)
Min Temperature 26 °F 27 °F 3 °F (1979)
Degree Days  
Heating Degree Days 27 25  
Month to date heating degree days 177 159  
Since 1 July heating degree days 7793 7678  
Cooling Degree Days 0 0  
Month to date cooling degree days 0 0  
Year to date cooling degree days 0 0  
Moisture  
Dew Point 30 °F    
Average Humidity 77    
Maximum Humidity 100    
Minimum Humidity 53    
Precipitation  
Precipitation 0.00 in 0.03 in 0.54 in (1907)
Month to date precipitation 0.00 0.21  
Year to date precipitation 1.42 2.02  
Snow  
Snow 0.00 in 0.20 in 4.00 in (1907)
Month to date snowfall 0.0 1.4  
Since 1 July snowfall 35.5 48.0  
Snow Depth 0.00 in    
Sea Level Pressure  
Sea Level Pressure 29.75 in    
Wind  
Wind Speed 8 mph (NNE)    
Max Wind Speed 23 mph    
Max Gust Speed 31 mph    
Visibility 6 miles    
Events Fog    
T = Trace of Precipitation, MM = Missing Value Source: NWS Daily Summary

Daily Weather History Graph

Daily Weather History Graph

Search for Another Location

Airport:

Trip Planner

Search our weather history database for the weather conditions in past years. The results will help you decide how hot, cold, wet, or windy it might be!

Date:

Astronomy

Apr. 06, 2013 Rise Set
Actual Time 7:12 AM CDT 8:19 PM CDT
Civil Twilight 6:41 AM CDT 8:50 PM CDT
Nautical Twilight 6:03 AM CDT 9:27 PM CDT
Astronomical Twilight 5:24 AM CDT 10:07 PM CDT
Moon 5:10 AM CDT (4/6) 4:38 PM CDT (4/6)
Length of Visible Light 14h 09m
Length of Day
13h 07m
Waning Crescent, 15% of the Moon is Illuminated
Apr 6
Waning Crescent
Apr 10
New
Apr 18
First Quarter
Apr 25
Full
May 2
Last Quarter

Hourly Weather History & Observations

Time (CDT) Temp. Windchill Dew Point Humidity Pressure Visibility Wind Dir Wind Speed Gust Speed Precip Events Conditions
12:52 AM 34.0 °F 26.6 °F 30.0 °F 85% 29.75 in 10.0 mi East 9.2 mph - N/A   Overcast
1:52 AM 34.0 °F 28.0 °F 30.0 °F 85% 29.73 in 10.0 mi East 6.9 mph - N/A   Overcast
2:52 AM 33.1 °F 26.9 °F 30.0 °F 89% 29.70 in 9.0 mi East 6.9 mph - N/A   Scattered Clouds
3:52 AM 30.0 °F 24.1 °F 28.9 °F 96% 29.70 in 7.0 mi ENE 5.8 mph - N/A   Clear
4:52 AM 27.0 °F 21.6 °F 27.0 °F 100% 29.71 in 5.0 mi East 4.6 mph - N/A   Clear
5:38 AM 28.9 °F 23.9 °F 27.0 °F 92% 29.66 in 3.0 mi East 4.6 mph - N/A   Mostly Cloudy
5:47 AM 28.4 °F 24.6 °F 28.4 °F 100% 29.66 in 3.0 mi East 3.5 mph - N/A   Mostly Cloudy
5:52 AM 28.9 °F 25.2 °F 28.0 °F 96% 29.70 in 3.0 mi East 3.5 mph - N/A   Mostly Cloudy
5:57 AM 28.9 °F 25.2 °F 28.0 °F 96% 29.66 in 2.5 mi East 3.5 mph - N/A   Overcast
6:11 AM 28.9 °F 25.2 °F 28.9 °F 100% 29.66 in 1.0 mi East 3.5 mph - N/A   Overcast
6:14 AM 28.9 °F 23.9 °F 28.9 °F 100% 29.66 in 0.8 mi East 4.6 mph - N/A   Mist
6:24 AM 28.9 °F 25.2 °F 28.9 °F 100% 29.66 in 0.5 mi East 3.5 mph - N/A Fog Light Freezing Fog
6:32 AM 28.9 °F - 28.9 °F 100% 29.66 in 0.2 mi Calm Calm - N/A Fog Light Freezing Fog
6:52 AM 28.0 °F - 28.0 °F 100% 29.70 in 0.2 mi Calm Calm - N/A Fog Light Freezing Fog
7:21 AM 28.0 °F - 27.0 °F 96% 29.67 in 0.2 mi Calm Calm - N/A Fog Light Freezing Fog
7:29 AM 28.0 °F - 27.0 °F 96% 29.66 in 0.2 mi Calm Calm - N/A Fog Light Freezing Fog
7:52 AM 28.0 °F - 28.0 °F 100% 29.71 in 0.2 mi Calm Calm - N/A Fog Light Freezing Fog
8:23 AM 28.0 °F - 28.0 °F 100% 29.67 in 0.2 mi Calm Calm - N/A Fog Light Freezing Fog
8:39 AM 28.9 °F - 28.9 °F 100% 29.68 in 0.2 mi Calm Calm - N/A Fog Light Freezing Fog
8:52 AM 28.9 °F - 28.9 °F 100% 29.73 in 0.2 mi Calm Calm - N/A Fog Light Freezing Fog
9:43 AM 30.9 °F - 30.9 °F 100% 29.68 in 0.5 mi Calm Calm - N/A Fog Light Freezing Fog
9:50 AM 32.0 °F - 30.2 °F 93% 29.68 in 1.0 mi Calm Calm - N/A   Overcast
9:52 AM 32.0 °F 28.7 °F 32.0 °F 100% 29.73 in 1.0 mi WSW 3.5 mph - N/A   Overcast
10:06 AM 32.0 °F 27.5 °F 32.0 °F 100% 29.68 in 3.0 mi WNW 4.6 mph - N/A   Mostly Cloudy
10:20 AM 35.1 °F 30.1 °F 33.1 °F 92% 29.68 in 6.0 mi NNW 5.8 mph - N/A   Scattered Clouds
10:52 AM 44.1 °F 37.7 °F 34.0 °F 68% 29.74 in 10.0 mi NNW 12.7 mph - N/A   Mostly Cloudy
11:52 AM 48.0 °F - 33.1 °F 56% 29.75 in 10.0 mi NNW 16.1 mph - N/A   Clear
12:52 PM 46.0 °F 39.0 °F 30.9 °F 56% 29.78 in 10.0 mi NNW 17.3 mph 31.1 mph N/A   Clear
1:52 PM 42.1 °F 33.9 °F 30.9 °F 65% 29.80 in 10.0 mi NNW 17.3 mph - N/A   Scattered Clouds
2:01 PM 41.0 °F 32.5 °F 30.9 °F 67% 29.76 in 10.0 mi NNW 17.3 mph 24.2 mph N/A   Mostly Cloudy
2:52 PM 39.0 °F 32.3 °F 30.9 °F 73% 29.82 in 10.0 mi NW 10.4 mph - N/A   Overcast
3:52 PM 44.1 °F 37.7 °F 32.0 °F 63% 29.82 in 10.0 mi North 12.7 mph 23.0 mph N/A   Mostly Cloudy
4:52 PM 43.0 °F 35.1 °F 30.9 °F 62% 29.83 in 10.0 mi NNW 17.3 mph 24.2 mph N/A   Overcast
5:52 PM 41.0 °F 34.3 °F 30.9 °F 67% 29.85 in 10.0 mi NNW 11.5 mph - N/A   Overcast
6:52 PM 39.9 °F 32.9 °F 30.9 °F 70% 29.86 in 10.0 mi NNE 11.5 mph - N/A   Overcast
7:52 PM 37.9 °F 31.5 °F 30.0 °F 73% 29.89 in 10.0 mi North 9.2 mph - N/A   Overcast
8:52 PM 36.0 °F 30.3 °F 30.0 °F 79% 29.90 in 10.0 mi NNE 6.9 mph - N/A   Overcast
9:52 PM 35.1 °F 29.3 °F 28.9 °F 78% 29.91 in 10.0 mi NE 6.9 mph - N/A   Overcast
10:52 PM 34.0 °F 28.0 °F 28.9 °F 82% 29.91 in 10.0 mi NE 6.9 mph - N/A   Overcast
11:52 PM 33.1 °F 27.7 °F 28.9 °F 85% 29.90 in 10.0 mi ENE 5.8 mph - N/A   Overcast